Regional Weather Roundup
Issued by NWS

Home | Current Version | Previous Version | Text Only | Print | Product List | Glossary Off
Versions: 1 2 3 4 5 6 7 8 9 10 11 12 13 14 15 16 17 18 19 20 21 22 23 24 25 26 27 28 29 30 31 32 33 34 35 36 37 38 39 40 41 42 43 44 45 46 47 48 49 50

000
ASUS43 KMKX 021521
RWRWI

WISCONSIN REGIONAL WEATHER ROUNDUP
NATIONAL WEATHER SERVICE MILWAUKEE/SULLIVAN WI
1000 AM CDT TUE SEP 02 2014

NOTE: "FAIR" INDICATES FEW OR NO CLOUDS BELOW 12,000 FEET WITH NO
SIGNIFICANT WEATHER AND/OR OBSTRUCTIONS TO VISIBILITY.

WIZ001-002-006>008-014>016-023>028-021600-
NORTHWEST WISCONSIN

CITY           SKY/WX    TMP DP  RH WIND       PRES   REMARKS
SUPERIOR ARPT  SUNNY     65  57  75 SW7       29.84R
ASHLAND        MOSUNNY   65  55  70 SW8       29.84S
HAYWARD        MOSUNNY   63  54  72 SW5       29.87S
SIREN          SUNNY     65  56  71 W3        29.88S
RICE LAKE      MOSUNNY   65  56  70 W3        29.90R
LADYSMITH      PTSUNNY   64  57  78 W3        29.90R
EAU CLAIRE     MOSUNNY   68  59  73 NW6       29.88R
MENOMONIE      SUNNY     69  58  69 W3        29.88S
NEW RICHMOND   SUNNY     67  58  74 W5        29.89S
OSCEOLA        SUNNY     66  59  78 CALM      29.92R
$$

WIZ003>005-009-010-017-018-021600-
NORTH CENTRAL WISCONSIN

CITY           SKY/WX    TMP DP  RH WIND       PRES   REMARKS
WOODRUFF       MOSUNNY   62  56  82 W3        29.87R
RHINELANDER    PTSUNNY   62  56  80 W7        29.88R
EAGLE RIVER    PTSUNNY   61  57  88 W6        29.86R
LAND O LAKES   PTSUNNY   63  56  77 W7        29.86S
PHILLIPS       SUNNY     62  55  78 W3        29.87S
TOMAHAWK       PTSUNNY   61  57  87 W3        29.89R
MEDFORD        PTSUNNY   62  59  91 W7        29.89R
MERRILL        CLOUDY    62  59  91 W5        29.88R
$$

WIZ029-030-035-036-043>047-021600-
CENTRAL WISCONSIN

CITY           SKY/WX    TMP DP  RH WIND       PRES   REMARKS
WAUSAU         CLOUDY    64  58  80 SW5       29.87R
MOSINEE        PTSUNNY   63  61  94 SW7       29.89S
MARSHFIELD     CLOUDY    63  60  90 W9        29.89R
STEVENS POINT  CLOUDY    61  58  91 S3        29.89S
WAUPACA        CLOUDY    70  63  79 W7        29.89R
WAUTOMA        CLOUDY    68  62  80 SW7       29.90R HAZE
WISC RAPIDS    CLOUDY    65  59  81 SW7       29.90S
CAMP DOUGLAS   MOSUNNY   64  64 100 W5        29.89S
$$

WIZ011>013-019>022-031-037>040-048>050-021600-
NORTHEAST WISCONSIN

CITY           SKY/WX    TMP DP  RH WIND       PRES   REMARKS
ANTIGO         CLOUDY    58  56  93 CALM      29.88S
STURGEON BAY   PTSUNNY   68  59  73 W7        29.87R
GREEN BAY      CLOUDY    67  63  87 SW5       29.87S
MANITOWOC      PTSUNNY   69  62  78 W5        29.88S
APPLETON       PTSUNNY   66  64  94 SW9       29.88F
CLINTONVILLE   CLOUDY    63  59  88 NW3       29.89R
OSHKOSH        PTSUNNY   69  62  78 SW6       29.87F
$$

WIZ032>034-041-042-053>061-021600-
SOUTHWEST WISCONSIN

CITY           SKY/WX    TMP DP  RH WIND       PRES   REMARKS
LA CROSSE      MOSUNNY   69  57  65 SW10      29.91R
SPARTA         CLOUDY    67  57  71 SW6       29.91S
VIROQUA        FAIR      67  60  78 W8        29.92S
BOSCOBEL       PTSUNNY   67  60  78 VRB5      29.92S
PRAIRIE DU CHI MOSUNNY   67  57  72 CALM      29.91S
PLATTEVILLE    FAIR      64  61  90 CALM      29.94F
$$

WIZ056-057-062-063-064-067-068-021600-
SOUTH CENTRAL WISCONSIN

CITY           SKY/WX    TMP DP  RH WIND       PRES   REMARKS
BARABOO/DELLS  CLOUDY    65  57  75 W9        29.91F
LONE ROCK      PTSUNNY   67  60  78 SW6       29.92S
WATERTOWN      CLOUDY    69  63  80 W3        29.90S
MADISON        PTSUNNY   68  59  73 W8        29.91R
MIDDLETON      CLOUDY    66  61  84 W8        29.92S
MONROE         CLOUDY    63  61  94 SW9       29.94R
JANESVILLE     PTSUNNY   70  64  83 W6        29.92R
$$

WIZ051-052-058>065-066-070>072-021600-
SOUTHEAST WISCONSIN

CITY           SKY/WX    TMP DP  RH WIND       PRES   REMARKS
MILWAUKEE      PTSUNNY   75  57  53 W6        29.90R
WAUKESHA       NOT AVBL
MILWAUKEE/TIMM SUNNY     72  57  60 SW6       29.90R
RACINE         MOSUNNY   75  58  55 CALM      29.91R
BURLINGTON     MOSUNNY   70  62  78 NW3       29.91R
KENOSHA        PTSUNNY   74  61  63 CALM      29.91R
FOND DU LAC    PTSUNNY   68  62  81 MISG      29.88F
SHEBOYGAN      CLOUDY    70  61  73 SW3       29.88S
WEST BEND      PTSUNNY   70  59  68 SW3       29.89S
JUNEAU         PTSUNNY   65  62  87 SW6       29.91R
$$

LSZ147-162-021600-
LAKE SUPERIOR

STATION/POSITION TIME  TEMP    WIND        PRES    WAVE
                       AIR SEA DIR/SP/G            HT/PER
                 (UTC) (F)     (DEG/KT/KT) (MB)    (FT/S)
W MID LAKE BUOY  1450   59 57  240/ 10/ 12 1008.8R   1/ 4
DEVILS ISLAND    1500   61     240/ 17/ 19 1009.5R
PORT WING        1440   63     180/  6/  8 1010.2F
SAXON HARBOR     1440   65     190/  4/  4 1010.2S
$$

LMZ867-665-643>646-021600-
LAKE MICHIGAN

STATION/POSITION TIME  TEMP    WIND        PRES    WAVE
                       AIR SEA DIR/SP/G            HT/PER
                 (UTC) (F)     (DEG/KT/KT) (MB)    (FT/S)
N MID LAKE BUOY  1450   64 65  270/ 10/ 10 1010.5R   1/ 5
NORTHPORT PIER   1400   69     270/  2/  6 1010.5S
KEWAUNEE LAKESHO 1500   69     260/  5/  7 1010.4S
SHEBOYGAN LAKESH 1500   70 50  250/  7/  8 1011.7R
ATWATER BUOY     1500   68     150/  4/  4 1013.4R
MILWAUKEE LAKESH 1500   72     180/  4/  5   N/A
S MID LAKE BUOY  1450   69 70  300/  2/  4 1012.3R   1
KENOSHA   LAKESH 1500   72      90/  2/  2 1012.2S
$$

TC  - TEMPERATURE IN CELSIUS
VSB - VISIBILITY IN STATUTE MILES
WCI - WIND CHILL INDEX
HX  - HEAT INDEX




USA.gov is the U.S. government's official web portal to all federal, state and local government web resources and services.